STARLINK-3868 (52649 NORAD) Tracking and Keplerian Element Data

This shows tracking and keplerian element data for the satellite.

Feedback or suggestion? Click here.




ElementValue
Catalog52649
NameSTARLINK-3868
Epoch Orbit130
Epoch Day167.08334491
Epoch Year2022
RAAN279.9825
Inclination53.214
Eccentricity0.0001904
Argument of Perigee26.9207
Mean Anonmoly18.705
Mean Motion15.73235562
Decay Rate-0.0002345
L11 52649U 22052BD 22167.08334491 -.00023450 00000+0 -16286-3 0 9998
L22 52649 53.2140 279.9825 0001904 26.9207 18.7050 15.73235562 1309

Live tracking and technical data element details for STARLINK-3868 (NORAD 52649). STARLINK-3868 can be tracked NOW for your location showing map with azimuth and elevation plus other details from your city location.

Track the satellite on the map from your city or location and see movement details for azimuth, elevation, latitude, longitude, range, height, and movement on the map or in text.







IsCatalogInMostPopularTable: catalog: 52649, numindb: 1
Update: records affected: 1



GetName: 52649 STARLINK-3868

Hit Count: updated at: Sat, 25 Jun 2022 04:43:02 GMT